Location: Newark
(17.9939°S, 31.0481°E)
Time: 14:12:35
(UTC+00:00)

Envisat - Visible Passes

Search period start: 22 October 2019 00:00
Search period end: 01 November 2019 00:00
Orbit: 764 x 766 km, 98.1° (Epoch: 22 October)

Date Brightness Start Highest point End Pass type
(mag) Time Alt. Az. Time Alt. Az. Time Alt. Az.
22 Oct 5.8 17:39:52 10° SSW 17:43:18 18° WSW 17:46:42 10° WNW visible
23 Oct 4.1 17:01:52 10° S 17:06:46 48° WSW 17:11:38 10° NNW visible
24 Oct 3.0 16:25:03 10° SSE 16:30:06 62° E 16:35:07 10° N visible
25 Oct 5.4 17:28:03 10° SSW 17:32:07 24° WSW 17:36:09 10° NW visible
26 Oct 3.5 16:50:29 10° S 16:55:33 65° WSW 17:00:34 10° NNW visible
27 Oct 3.3 16:13:57 10° SSE 16:18:50 46° E 16:23:41 10° N visible
27 Oct 6.2 17:55:30 10° SW 17:57:23 12° WSW 17:59:16 10° W visible
28 Oct 4.9 17:16:25 10° SSW 17:20:55 32° WSW 17:25:24 10° NW visible
29 Oct 3.0 16:39:11 10° S 16:44:19 87° WSW 16:49:23 10° NNW visible
30 Oct 5.9 17:43:08 10° SW 17:46:14 16° WSW 17:49:19 10° WNW visible
31 Oct 4.3 17:04:54 10° S 17:09:43 43° WSW 17:14:29 10° NW visible
